Location: Akho
(42.3047°N, 44.1844°E)
Time: 09:06:46
(UTC+00:00)

Okean 3 Rocket - Pass Details

Date: 07 June 2020
Orbit: 614 x 646 km, 82.5° (Epoch: 06 July)

Event Time Altitude Azimuth Distance (km) Brightness Sun altitude
Exits shadow 00:07:18 12° 189° (S) 1,886 5.5 -12.2°
Maximum altitude 00:11:28 84° 278° (W) 656 3.6 -11.6°
Drops below altitude 10° 00:16:02 10° 7° (N) 2,052 7.1 -11.0°
Sets 00:18:18 0° 8° (N) 2,965 8.0 -10.7°
